Total_Precipitation_Accumulation
0.02 0.02 0.02 0.02 0.03 0.04 0.04 0.04 0.02 0.03 0.02 0.02 0.03 0.03 0.04 0.18 0.29 0.74 1.35 1.21 0.93 0.68
0.02 0.02 0.03 0.03 0.02 0.04 0.03 0.04 0.05 0.07 0.06 0.06 0.05 0.05 0.05 0.09 0.20 0.29 0.61 1.09 1.55 1.62
0.05 0.03 0.03 0.03 0.03 0.03 0.04 0.04 0.04 0.13 0.14 0.12 0.11 0.08 0.13 0.12 0.10 0.13 0.18 0.35 0.57 1.17
0.06 0.05 0.05 0.04 0.05 0.09 0.13 0.14 0.12 0.11 0.14 0.23 0.17 0.24 0.24 0.33 0.25 0.16 0.16 0.21 0.37 0.67
0.10 0.09 0.10 0.16 0.18 0.23 0.30 0.33 0.27 0.26 0.26 0.29 0.32 0.38 0.41 0.37 0.53 0.44 0.36 0.43 0.31 0.38
0.03 0.09 0.19 0.35 0.38 0.59 0.57 0.67 0.76 0.68 0.54 0.48 0.59 0.59 0.76 0.54 0.35 0.40 0.61 0.59 0.63 0.67
0.01 0.01 0.05 0.15 0.20 0.37 0.48 0.70 1.02 1.33 1.42 1.21 0.88 0.87 0.74 0.66 0.77 0.68 0.89 0.94 0.62 0.87
0.00 0.01 0.00 0.01 0.05 0.06 0.12 0.28 0.74 0.93 1.04 0.91 0.69 0.67 0.44 0.32 0.66 0.73 0.65 0.89 0.69 0.55
0.00 0.00 0.01 0.01 0.02 0.01 0.00 0.02 0.07 0.05 0.10 0.33 0.28 0.19 0.08 0.06 0.22 0.31 0.25 0.27 0.24 0.21
0.00 0.00 0.00 0.00 0.00 0.01 0.01 0.00 0.00 0.00 0.00 0.01 0.04 0.04 0.05 0.02 0.03 0.05 0.09 0.10 0.09 0.07
0.00 0.00 0.00 0.00 0.00 0.00 0.00 0.00 0.00 0.00 0.00 0.00 0.00 0.00 0.01 0.01 0.00 0.00 0.01 0.01 0.02 0.02
0.00 0.00 0.00 0.00 0.00 0.00 0.00 0.00 0.00 0.00 0.00 0.00 0.00 0.00 0.00 0.00 0.00 0.00 0.00 0.00 0.00 0.00
0.00 0.00 0.00 0.00 0.00 0.00 0.00 0.00 0.00 0.00 0.00 0.00 0.00 0.00 0.00 0.00 0.00 0.00 0.00 0.00 0.00 0.00
0.00 0.00 0.00 0.00 0.00 0.00 0.00 0.00 0.00 0.01 0.01 0.00 0.00 0.00 0.00 0.00 0.00 0.00 0.00 0.00 0.00 0.00